FENGYUN 1C DEB, 36236

Orbit data source: Space-Track

FENGYUN 1C DEB, 36236 is space debris in SSO originally from a launch on Mon, 10 May 1999 UTC launched from the Taiyaun Space Center, China (TSC). Fengyun 1C debris stems from the Chinese weather satellite Fengyun-1C, which was intentionally destroyed by a Chinese anti-satellite missile in 2007. This event dramatically increased the amount of space debris, with thousands of trackable fragments posing hazards to satellites and human spaceflight. The Fengyun 1C debris cloud has become a focal point in discussions about space sustainability and the need for international regulations to prevent the creation of new debris.

Loading next visibility...
Identifier
36236, 1999-025DVM
Orbit
SSO
Country
Flag of CNCN / PRC
Related business
Manufacturer
Unknown
Mission
Spacecraft
Bus & Motor
Unknown
Mass
Unknown
Launch date (UTC)
1999-05-10 (27 years ago)
Launch vehicle
Unknown
Launch site
Taiyaun Space Center, China (TSC)
Object type
Payload
Rocket body
Debris
Shape & HBR
Unknown shape, 0.1 m
Radar Cross Section
Small (<0.1 m²)

Expand to show TLE details & history
Last TLE update: 1 week ago

TLE from 1 week ago
0 FENGYUN 1C DEB
1 36236U 99025DVM 26250.31148456  .00000167  00000-0  17737-3 0  9994
2 36236  98.8211 278.9048 0149305 354.3375   5.6086 13.82127720634574
Epoch: 2026-09-07T07:28Z
TLE epoch observation values (Epoch: 2026-09-07T07:28:32.265Z)
Latitude
-0.00013°
Longitude
-179.62369°
Altitude
850.221 km
Speed
7.482 km/s
True Right ascension
18h 35m 37s
True Declination
0° 00' 00"
Sunlit
Object was in daylight at epoch
Visualization orbit readout
Latitude
Unknown
Longitude
Unknown
Altitude
Unknown
Speed
Unknown
Apparent Right ascension
Unknown
Apparent Declination
Unknown
Sunlit
N/A
Visualization observer readout
Local Sidereal Time
00:03:19
Azimuth
Unknown
Elevation
Unknown
Doppler factor
Unknown
Orbital elements
Apogee altitude
1,063.029 km
Perigee altitude
844.098 km
Semi-major axis
7,331.7 km
Eccentricity
0.01493
Inclination
98.8211°
RAAN
278.9048°
Arg. of periapsis
354.3375°
True anomaly
5.77897°
Mean anomaly
5.6086°
Eccentric anomaly
5.69347°
Mean motion
3.45729 °/min
Orbital period
104.13 mins
BSTAR
0.00017737
Loading maneuver chart data...
Computing Atmospheric mass density...

Documentation

Showing up to 5 results
|